WetterOnline ( https://www.wetteronline.de )

Wetter aktuell Bad Reichenhall

Aktuelles Wetter: Salzburg Flughafen (450m)

6-stündlich | Neueste Meldungen
Ortszeit Temperatur Wetter
Di, 18.05. 8:00 10.3° C bewölkt
Di, 18.05. 2:00 11.3° C bewölkt
Mo, 17.05. 20:00 10.7° C wolkig
Mo, 17.05. 14:00 14.0° C bewölkt
Mo, 17.05. 8:00 10.6° C bewölkt
Mo, 17.05. 2:00 9.3° C leichter Regen
So, 16.05. 20:00 13.9° C leichter Regen
So, 16.05. 14:00 17.0° C leicht bewölkt
Ortszeit Temperatur Wetter
Di, 18.05. 13:00 13.9° C bewölkt
Di, 18.05. 12:50 14° C bewölkt
Di, 18.05. 12:20 14° C bewölkt
Di, 18.05. 12:00 12.4° C leichter Regen
Di, 18.05. 11:50 12° C leichter Regen
Di, 18.05. 11:20 12° C bewölkt
Di, 18.05. 11:00 12.5° C bedeckt
Di, 18.05. 10:20 12° C leichte Schauer
Di, 18.05. 10:00 10.3° C bedeckt
Di, 18.05. 9:20 10° C bewölkt
Ortszeit Relative Feuchte Sichtweite
Di, 18.05. 8:00 74% 70 km
Di, 18.05. 2:00 64% 65 km
Mo, 17.05. 20:00 77% 70 km
Mo, 17.05. 14:00 55% 60 km
Mo, 17.05. 8:00 68% 60 km
Mo, 17.05. 2:00 97% 20 km
So, 16.05. 20:00 71% 16 km
So, 16.05. 14:00 48% 50 km
Ortszeit Relative Feuchte Sichtweite
Di, 18.05. 13:00 63% 65 km
Di, 18.05. 12:50 63% >10 km
Di, 18.05. 12:20 63% >10 km
Di, 18.05. 12:00 65% 65 km
Di, 18.05. 11:50 67% >10 km
Di, 18.05. 11:20 71% >10 km
Di, 18.05. 11:00 65% 60 km
Di, 18.05. 10:20 62% >10 km
Di, 18.05. 10:00 87% 60 km
Di, 18.05. 9:20 87% >10 km
Ortszeit Niederschlagsmenge Niederschlagsart
Di, 18.05. 8:00 keine Meldung -
Di, 18.05. 2:00 keine Meldung -
Mo, 17.05. 20:00 0.9 l/m2 in 12 Std. -
Mo, 17.05. 14:00 0.6 l/m2 in 6 Std. -
Mo, 17.05. 8:00 4 l/m2 in 12 Std. -
Mo, 17.05. 2:00 4 l/m2 in 6 Std. -
So, 16.05. 20:00 0.2 l/m2 in 12 Std. -
So, 16.05. 14:00 keine Meldung -
Ortszeit Niederschlagsmenge Niederschlagsart
Di, 18.05. 13:00 0.0 l/m2 in 1 Std. -
Di, 18.05. 12:50 keine Meldung -
Di, 18.05. 12:20 keine Meldung -
Di, 18.05. 12:00 0.0 l/m2 in 1 Std. -
Di, 18.05. 11:50 keine Meldung -
Di, 18.05. 11:20 keine Meldung -
Di, 18.05. 11:00 0.0 l/m2 in 1 Std. -
Di, 18.05. 10:20 keine Meldung -
Di, 18.05. 10:00 0.0 l/m2 in 1 Std. -
Di, 18.05. 9:20 keine Meldung -
Ortszeit Stärke Spitze Richtung
km/h Bft. km/h Grad Sektor
Di, 18.05. 8:00 11 2 47 - -
Di, 18.05. 2:00 22 4 47 260° W
Mo, 17.05. 20:00 7 2 68 - -
Mo, 17.05. 14:00 29 5 54 300° NW
Mo, 17.05. 8:00 18 3 - 280° W
Mo, 17.05. 2:00 11 2 - 190° S
So, 16.05. 20:00 14 3 - 130° SO
So, 16.05. 14:00 7 2 - - -
Ortszeit Stärke Spitze Richtung
km/h Bft. km/h Grad Sektor
Di, 18.05. 13:00 18 3 - 210° SW
Di, 18.05. 12:50 17 3 - 210° SW
Di, 18.05. 12:20 15 3 - 220° SW
Di, 18.05. 12:00 18 3 - 250° W
Di, 18.05. 11:50 17 3 - 250° W
Di, 18.05. 11:20 15 3 - 250° W
Di, 18.05. 11:00 14 3 - 290° W
Di, 18.05. 10:20 17 3 - uml. uml.
Di, 18.05. 10:00 7 2 - - -
Di, 18.05. 9:20 7 2 - 160° S
Ortszeit Untergrenze Bedeckung Gattung
total tief tief mittel hoch
Di, 18.05. 8:00 1020 m 7/8 5/8 Cu - -
Di, 18.05. 2:00 1380 m 8/8 5/8 - - -
Mo, 17.05. 20:00 1350 m 7/8 3/8 Cu Ac -
Mo, 17.05. 14:00 1050 m 7/8 5/8 Cu - -
Mo, 17.05. 8:00 540 m 7/8 6/8 Sc - -
Mo, 17.05. 2:00 570 m 8/8 5/8 - - -
So, 16.05. 20:00 1350 m 8/8 6/8 Cu Ac -
So, 16.05. 14:00 2400 m 5/8 1/8 Sc Ac -
Ortszeit Bedeckungsgrad in Achtel und Wolkenuntergrenze
Di, 18.05. 13:00 1(1050m) 5(1500m)
Di, 18.05. 12:50 1-2(1050m) 5-7(1500m)
Di, 18.05. 12:20 1-2(750m) 5-7(2100m)
Di, 18.05. 12:00 1(840m) 3(1200m) 5(1800m)
Di, 18.05. 11:50 1-2(840m) 3-4(1200m) 7(1800m)
Di, 18.05. 11:20 1-2(600m) 3-4(1200m) 7(1500m)
Di, 18.05. 11:00 1(900m) 3(1200m) 5(1500m)
Di, 18.05. 10:20 1-2(960m) 3-4(1200m) 7(1500m)
Di, 18.05. 10:00 1(1080m) 3(1200m) 5(1800m)
Di, 18.05. 9:20 1-2(1110m) 3-4(1200m) 7(1500m)
Ortszeit Luftdruck NN (hPa) Tendenz (hPa in 3 Std.)
Di, 18.05. 8:00 1016 + 1,2
Di, 18.05. 2:00 1013 0,0
Mo, 17.05. 20:00 1011 + 2,2
Mo, 17.05. 14:00 1008 + 0,2
Mo, 17.05. 8:00 1008 + 1,0
Mo, 17.05. 2:00 1006 + 0,3
So, 16.05. 20:00 1005 0,0
So, 16.05. 14:00 1006 - 1,2
Ortszeit Luftdruck NN (hPa) Tendenz (hPa in 3 Std.)
Di, 18.05. 13:00 1015 - 0,7
Di, 18.05. 12:50 1015 keine Meldung
Di, 18.05. 12:20 1015 keine Meldung
Di, 18.05. 12:00 1016 0,0
Di, 18.05. 11:50 1016 keine Meldung
Di, 18.05. 11:20 1016 keine Meldung
Di, 18.05. 11:00 1016 + 0,6
Di, 18.05. 10:20 1016 keine Meldung
Di, 18.05. 10:00 1016 + 1,1
Di, 18.05. 9:20 1016 keine Meldung
Ortszeit Schneehöhe (cm)
Di, 18.05. 8:00 -
Di, 18.05. 2:00 -
Mo, 17.05. 20:00 -
Mo, 17.05. 14:00 -
Mo, 17.05. 8:00 -
Mo, 17.05. 2:00 -
So, 16.05. 20:00 -
So, 16.05. 14:00 -
Ortszeit Schneehöhe (cm)
Di, 18.05. 13:00 -
Di, 18.05. 12:50 -
Di, 18.05. 12:20 -
Di, 18.05. 12:00 -
Di, 18.05. 11:50 -
Di, 18.05. 11:20 -
Di, 18.05. 11:00 -
Di, 18.05. 10:20 -
Di, 18.05. 10:00 -
Di, 18.05. 9:20 -
Link zu dieser Seite / Seite empfehlen

Das Wetter in ...